Weather History for Bradford, PA

Change the Weather History Date:

Saturday, December 8, 2012

  Actual Average Record
Temperature  
Mean Temperature 46 °F 28 °F  
Max Temperature 52 °F 35 °F 60 °F (1966)
Min Temperature 39 °F 21 °F -2 °F (1970)
Degree Days  
Heating Degree Days 20 32  
Month to date heating degree days 247  
Since 1 July heating degree days 2082  
Cooling Degree Days 0 0  
Month to date cooling degree days 0  
Year to date cooling degree days 193  
Moisture  
Dew Point 39 °F    
Average Humidity 78    
Maximum Humidity 86    
Minimum Humidity 71    
Precipitation  
Precipitation 0.13 in 0.12 in 0.70 in (1974)
Month to date precipitation 0.94  
Year to date precipitation 42.00  
Sea Level Pressure  
Sea Level Pressure 29.88 in    
Wind  
Wind Speed 6 mph (WSW)    
Max Wind Speed 16 mph    
Max Gust Speed 22 mph    
Visibility 7 miles    
Events Rain    
T = Trace of Precipitation, MM = Missing Value Source: NWS Daily Summary

Daily Weather History Graph

Daily Weather History Graph

Search for Another Location

Airport:

Trip Planner

Search our weather history database for the weather conditions in past years. The results will help you decide how hot, cold, wet, or windy it might be!

Date:

Astronomy

Dec. 08, 2012 Rise Set
Actual Time 7:29 AM EST 4:43 PM EST
Civil Twilight 6:58 AM EST 5:15 PM EST
Nautical Twilight 6:23 AM EST 5:49 PM EST
Astronomical Twilight 5:49 AM EST 6:23 PM EST
Moon 1:48 AM EST (12/8) 1:16 PM EST (12/8)
Length of Visible Light 10h 16m
Length of Day
9h 13m
Waning Crescent, 28% of the Moon is Illuminated
Dec 8
Waning Crescent
Dec 13
New
Dec 20
First Quarter
Dec 28
Full
Jan 4
Last Quarter

Hourly Weather History & Observations

Time (EST) Temp. Windchill Dew Point Humidity Pressure Visibility Wind Dir Wind Speed Gust Speed Precip Events Conditions
12:05 AM 42.1 °F 39.2 °F 37.0 °F 82% 29.88 in 0.8 mi ESE 4.6 mph - 0.00 in Rain Light Rain
12:18 AM 42.1 °F 40.2 °F 37.9 °F 85% 29.88 in 1.0 mi SE 3.5 mph - 0.01 in Rain Light Rain
12:53 AM 42.1 °F 40.2 °F 37.0 °F 82% 29.89 in 1.5 mi ESE 3.5 mph - 0.03 in Rain Rain
1:40 AM 42.1 °F 39.2 °F 37.0 °F 82% 29.86 in 3.0 mi SE 4.6 mph - 0.04 in Rain Light Rain
1:53 AM 42.1 °F 39.2 °F 37.0 °F 82% 29.88 in 4.0 mi ESE 4.6 mph - 0.05 in Rain Light Rain
2:28 AM 42.1 °F 40.2 °F 37.0 °F 82% 29.84 in 8.0 mi ESE 3.5 mph - 0.01 in Rain Light Rain
2:53 AM 42.1 °F - 37.0 °F 82% 29.87 in 6.0 mi Calm Calm - 0.03 in Rain Light Rain
3:06 AM 42.1 °F - 37.0 °F 82% 29.84 in 5.0 mi Calm Calm - 0.00 in Rain Light Rain
3:15 AM 42.1 °F 40.2 °F 37.0 °F 82% 29.83 in 7.0 mi ESE 3.5 mph - 0.00 in Rain Light Rain
3:53 AM 42.1 °F 39.2 °F 37.0 °F 82% 29.85 in 5.0 mi SE 4.6 mph - 0.01 in Rain Light Rain
4:53 AM 42.1 °F 39.2 °F 37.0 °F 82% 29.83 in 6.0 mi SE 4.6 mph - 0.01 in Rain Light Rain
5:26 AM 42.1 °F 38.4 °F 37.0 °F 82% 29.81 in 8.0 mi SE 5.8 mph - 0.00 in   Overcast
5:46 AM 41.0 °F 37.1 °F 36.0 °F 82% 29.81 in 1.8 mi SE 5.8 mph - 0.00 in   Haze
5:53 AM 41.0 °F 37.1 °F 37.0 °F 86% 29.84 in 1.0 mi SSE 5.8 mph - 0.00 in   Overcast
6:07 AM 41.0 °F 37.1 °F 36.0 °F 82% 29.80 in 0.8 mi SE 5.8 mph - N/A   Haze
6:53 AM 42.1 °F 37.7 °F 37.0 °F 82% 29.83 in 0.8 mi SE 6.9 mph - 0.00 in Rain Light Rain
6:58 AM 42.1 °F 37.7 °F 37.0 °F 82% 29.80 in 1.0 mi SE 6.9 mph - 0.00 in Rain Light Rain
7:30 AM 42.1 °F 38.4 °F 37.0 °F 82% 29.80 in 1.0 mi SSE 5.8 mph - 0.00 in   Haze
7:37 AM 43.0 °F 39.5 °F 37.9 °F 82% 29.80 in 0.8 mi SSE 5.8 mph - 0.00 in   Haze
7:53 AM 44.1 °F 41.5 °F 39.0 °F 82% 29.83 in 0.5 mi South 4.6 mph - 0.00 in   Haze
8:29 AM 46.0 °F 43.9 °F 41.0 °F 83% 29.79 in 0.2 mi SSW 4.6 mph - N/A   Haze
8:53 AM 46.9 °F - 42.1 °F 83% 29.82 in 0.2 mi SSW 6.9 mph - N/A   Haze
9:19 AM 46.9 °F - 42.1 °F 83% 29.80 in 1.0 mi SW 8.1 mph - N/A   Haze
9:30 AM 48.0 °F - 43.0 °F 83% 29.79 in 3.0 mi SSW 5.8 mph - N/A   Haze
9:53 AM 48.9 °F - 43.0 °F 80% 29.81 in 4.0 mi SW 6.9 mph - N/A   Haze
10:08 AM 48.9 °F - 44.1 °F 83% 29.80 in 8.0 mi SSW 6.9 mph - N/A   Overcast
10:22 AM 50.0 °F - 44.1 °F 80% 29.80 in 8.0 mi SW 8.1 mph 17.3 mph N/A   Overcast
10:53 AM 50.0 °F - 44.1 °F 80% 29.82 in 7.0 mi WSW 9.2 mph - N/A   Overcast
11:30 AM 51.1 °F - 44.1 °F 77% 29.80 in 9.0 mi WSW 10.4 mph 19.6 mph N/A   Overcast
11:45 AM 52.0 °F - 44.1 °F 74% 29.79 in 10.0 mi WSW 10.4 mph - N/A   Overcast
11:53 AM 52.0 °F - 43.0 °F 71% 29.81 in 10.0 mi WSW 9.2 mph 20.7 mph N/A   Overcast
12:53 PM 52.0 °F - 43.0 °F 71% 29.81 in 10.0 mi WSW 6.9 mph 21.9 mph N/A   Overcast
1:27 PM 52.0 °F - 43.0 °F 71% 29.79 in 10.0 mi WSW 10.4 mph 21.9 mph N/A   Overcast
1:53 PM 52.0 °F - 43.0 °F 71% 29.81 in 9.0 mi Variable 6.9 mph 18.4 mph N/A   Overcast
2:53 PM 52.0 °F - 43.0 °F 71% 29.82 in 9.0 mi WSW 9.2 mph - N/A   Overcast
3:41 PM 51.1 °F - 43.0 °F 74% 29.83 in 9.0 mi West 9.2 mph - N/A   Overcast
3:53 PM 51.1 °F - 43.0 °F 74% 29.85 in 9.0 mi West 8.1 mph - N/A   Overcast
4:25 PM 51.1 °F - 43.0 °F 74% 29.85 in 9.0 mi West 8.1 mph - N/A   Overcast
4:34 PM 51.1 °F - 43.0 °F 74% 29.85 in 8.0 mi West 9.2 mph - 0.00 in Rain Light Rain
4:50 PM 51.8 °F - 42.8 °F 71% 29.86 in 10.0 mi West 10.4 mph 20.7 mph 0.00 in   Overcast
5:31 PM 50.0 °F - 42.1 °F 74% 29.89 in 10.0 mi West 8.1 mph - N/A   Overcast
5:53 PM 50.0 °F - 42.1 °F 74% 29.91 in 10.0 mi West 6.9 mph 20.7 mph 0.00 in Rain Light Rain
6:07 PM 50.0 °F - 42.1 °F 74% 29.90 in 10.0 mi West 9.2 mph - 0.00 in Rain Light Rain
6:53 PM 48.9 °F - 41.0 °F 74% 29.94 in 10.0 mi West 9.2 mph - 0.00 in   Overcast
7:17 PM 48.0 °F - 41.0 °F 77% 29.93 in 10.0 mi NW 12.7 mph - 0.00 in   Overcast
7:26 PM 46.9 °F - 41.0 °F 80% 29.94 in 9.0 mi NW 11.5 mph - 0.00 in   Overcast
7:53 PM 46.0 °F 39.3 °F 39.9 °F 79% 29.98 in 9.0 mi WNW 16.1 mph 21.9 mph 0.00 in   Overcast
8:04 PM 46.0 °F 40.6 °F 39.0 °F 76% 29.97 in 10.0 mi WNW 11.5 mph - N/A   Overcast
8:53 PM 45.0 °F 39.3 °F 37.9 °F 76% 30.01 in 9.0 mi WNW 11.5 mph - 0.00 in Rain Light Rain
9:16 PM 44.1 °F 37.7 °F 36.0 °F 73% 30.00 in 10.0 mi NW 12.7 mph - 0.00 in   Overcast
9:53 PM 43.0 °F 36.4 °F 34.0 °F 71% 30.04 in 10.0 mi NW 12.7 mph - 0.00 in   Overcast
10:25 PM 42.1 °F 36.6 °F 34.0 °F 73% 30.03 in 10.0 mi NNW 9.2 mph - N/A   Overcast
10:34 PM 41.0 °F 34.3 °F 34.0 °F 76% 30.04 in 10.0 mi NNW 11.5 mph - N/A   Overcast
10:42 PM 41.0 °F 35.2 °F 33.1 °F 73% 30.04 in 10.0 mi NW 9.2 mph - N/A   Overcast
10:53 PM 41.0 °F 35.2 °F 33.1 °F 73% 30.06 in 10.0 mi NW 9.2 mph - N/A   Overcast
11:05 PM 41.0 °F 37.1 °F 33.1 °F 73% 30.05 in 10.0 mi NW 5.8 mph - N/A   Overcast
11:15 PM 41.0 °F 34.7 °F 33.1 °F 73% 30.06 in 10.0 mi NW 10.4 mph - N/A   Overcast
11:46 PM 39.0 °F 32.8 °F 30.9 °F 73% 30.07 in 10.0 mi North 9.2 mph - N/A   Overcast
11:53 PM 39.0 °F 32.8 °F 30.9 °F 73% 30.09 in 10.0 mi North 9.2 mph - N/A   Overcast